Location: McFarlands Corners
(41.4117°N, 81.3382°W)
Time: 19:55:34
(UTC+00:00)

BlueWalker 3 - Pass Details

Date: 21 January 2026
Orbit: 450 x 461 km, 53.2° (Epoch: 11 February)

Event Time Altitude Azimuth Distance (km) Brightness Sun altitude
Rises 23:34:10 0° 220° (SW) 2,444 6.4 -12.4°
Reaches altitude 10° 23:36:19 10° 216° (SW) 1,574 5.2 -12.8°
Maximum altitude 23:39:47 55° 137° (SE) 543 1.9 -13.4°
Enters shadow 23:41:34 25° 69° (ENE) 938 2.7 -13.8°
